[[{"header":{"parameterUnit":"m.s-1","parameterCategory":1,"la1":30.2991,"la2":30.254,"lo1":-89.0895,"lo2":-89.0444,"dy":0.0017,"dx":0.0017,"nx":28,"ny":28,"refTime":"2024-08-10T21:00:00:Z","depth":0,"parameterNumber":2,"parameterNumberName":"U-component_of_WINDS"},"data":[0,0,0,0,0,0,0,0,0,0,0,0,0,0,0,0,0,0,0,0,0,0,0,0,0,0,0,0,0,0,0,0,0,0,0,0,0,0,0,0,0,0,0,0,0,0,0,0,0,0,0,0,0,0,0,0,0,0,-2.2771,-2.277,0,-2.2747,-2.2746,-2.2746,-2.2662,-2.266,-2.2658,-2.2657,-2.2634,-2.2635,-2.2636,0,0,0,0,0,0,0,0,0,0,0,0,0,-2.2746,-2.2747,-2.2771,-2.277,-2.277,-2.2747,-2.2746,-2.2746,-2.2663,-2.266,-2.2658,-2.2656,-2.2633,-2.2635,-2.2636,0,0,0,0,0,0,0,0,0,0,0,0,0,-2.2743,-2.2747,-2.2771,-2.2726,-2.2721,-2.2747,-2.2746,-2.2746,-2.2663,-2.266,-2.2657,-2.2655,-2.2633,-2.2635,-2.2636,-2.2704,0,0,-2.2642,-2.2642,0,0,0,0,0,0,0,0,-2.2743,-2.2744,-2.2732,-2.2729,-2.2724,-2.2704,-2.2729,-2.2732,-2.2664,-2.2685,-2.2657,-2.2653,-2.266,-2.2659,-2.2661,-2.2703,-2.2702,-2.2642,-2.2643,-2.2644,-2.2644,0,0,0,0,0,0,0,-2.2743,-2.2744,-2.2761,-2.2732,-2.2727,-2.2707,-2.2703,-2.2729,-2.2689,-2.2683,-2.2677,-2.2675,-2.2657,-2.2659,-2.266,-2.2702,-2.2642,-2.2643,-2.2644,-2.2645,-2.2799,-2.2802,0,0,0,0,0,0,-2.275,-2.2745,-2.2762,-2.276,-2.2727,-2.271,-2.2706,-2.2714,-2.2688,-2.2682,-2.2678,-2.2671,-2.2658,-2.2658,-2.2659,-2.2737,-2.2644,-2.2645,-2.2646,-2.2796,-2.28,-2.2803,0,0,0,0,0,0,-2.275,-2.2752,-2.2763,-2.2751,-2.2751,-2.2713,-2.2723,-2.2715,-2.2717,-2.2684,-2.2677,-2.2688,-2.2656,-2.2656,-2.2693,-2.2735,-2.2646,-2.2648,-2.2792,-2.2797,-2.2801,-2.2894,0,0,0,0,0,0,-2.2749,-2.2753,-2.2777,-2.2752,-2.2752,-2.2798,-2.2725,-2.2716,-2.272,-2.2712,-2.2691,-2.2685,-2.2653,-2.2691,-2.2695,-2.2736,-2.2649,-2.2788,-2.2794,-2.28,-2.2887,-2.2901,-2.2913,0,0,0,0,0,-2.2749,-2.2805,-2.2779,-2.2782,-2.2782,-2.28,-2.28,-2.2762,-2.2724,-2.2749,-2.2728,-2.2686,-2.273,-2.2696,-2.27,-2.2741,-2.2786,-2.2793,-2.2799,-2.2881,-2.2898,-2.2913,0,0,0,0,0,0,-2.2836,-2.2801,-2.2772,-2.2821,-2.2815,-2.2786,-2.2817,-2.2781,-2.2785,-2.2777,-2.273,-2.2726,-2.2771,-2.2759,-2.2722,-2.2806,-2.2751,-2.2759,-2.2812,-2.2828,-2.2841,-2.2843,-2.265,0,0,0,0,0,-2.2861,-2.2879,-2.2846,-2.2893,-2.2891,-2.2855,-2.2861,-2.2832,-2.2824,-2.282,-2.2802,-2.2796,-2.2808,-2.2817,-2.2826,-2.2885,-2.288,-2.2915,-2.2928,-2.2939,-2.2947,-2.2978,-2.2994,-2.2825,-2.2825,-2.2825,0,0,-2.2913,-2.2896,-2.291,-2.291,-2.2902,-2.2922,-2.2853,-2.2876,-2.2891,-2.2824,-2.2858,-2.2845,-2.2834,-2.2883,-2.2903,-2.2875,-2.2992,-2.2948,-2.2957,-2.2959,-2.2987,-2.3003,-2.3017,-2.283,-2.2829,-2.2828,0,0,-2.3018,-2.3007,-2.3045,-2.3037,-2.3025,-2.3,-2.3009,-2.2987,-2.2975,-2.3008,-2.2959,-2.2975,-2.2997,-2.2992,-2.2993,-2.3096,-2.3058,-2.31,-2.3169,-2.32,-2.3213,-2.3225,-2.3263,-2.3277,-2.3108,-2.3108,-2.3108,0,-2.3085,-2.3112,-2.3069,-2.3096,-2.3098,-2.3038,-2.3076,-2.3071,-2.3063,-2.3066,-2.3034,-2.3061,-2.305,-2.3097,-2.3122,-2.3124,-2.3134,-2.3103,-2.3215,-2.3226,-2.3236,-2.3272,-2.3286,-2.3114,-2.3113,-2.3112,-2.3112,0,-2.3195,-2.3215,-2.3247,-2.324,-2.3246,-2.3279,-2.3241,-2.3252,-2.3222,-2.3202,-2.3237,-2.3221,-2.3227,-2.3235,-2.3207,-2.3279,-2.3262,-2.3223,-2.3167,-2.3258,-2.3291,-2.3305,-2.3121,-2.3119,-2.3118,-2.3116,0,0,-2.3355,-2.3324,-2.3337,-2.3333,-2.3315,-2.333,-2.336,-2.3365,-2.3376,-2.3372,-2.3397,-2.3417,-2.3381,-2.3382,-2.3352,-2.3379,-2.3464,-2.3337,-2.3336,-2.3362,-2.3543,-2.3574,-2.359,-2.3438,-2.344,-2.3442,-2.3545,0,-2.3456,-2.3506,-2.3468,-2.3525,-2.3543,-2.3486,-2.3512,-2.3505,-2.3486,-2.3499,-2.3478,-2.3494,-2.3445,-2.3445,-2.3469,-2.3448,-2.35,-2.344,-2.3462,-2.3463,-2.3468,-2.3607,-2.3639,-2.3736,-2.3557,-2.3559,-2.3561,0,-2.3581,-2.3582,-2.3641,-2.3619,-2.3626,-2.365,-2.3652,-2.3665,-2.3655,-2.364,-2.3641,-2.3604,-2.3633,-2.3577,-2.3617,-2.3578,-2.3584,-2.3575,-2.3578,-2.358,-2.3519,-2.3614,-2.3766,-2.3782,-2.358,-2.3579,-2.3577,0,-2.3693,-2.371,-2.3747,-2.3746,-2.3722,-2.374,-2.3731,-2.3718,-2.3724,-2.3726,-2.3729,-2.3734,-2.3738,-2.3743,-2.3709,-2.3671,-2.3754,-2.3695,-2.3743,-2.3744,-2.3764,-2.3764,-2.3921,-2.3767,-2.3766,-2.3766,-2.3766,0,-2.3811,-2.3849,-2.3798,-2.3821,-2.3863,-2.3819,-2.3861,-2.3846,-2.3835,-2.3855,-2.3806,-2.3826,-2.3779,-2.3794,-2.3768,-2.3806,-2.3807,-2.3797,-2.3789,-2.3802,-2.3803,-2.3806,-2.3799,-2.377,-2.3769,-2.3768,-2.3768,0,-2.3944,-2.3911,-2.3948,-2.3922,-2.3916,-2.3949,-2.3926,-2.3947,-2.3925,-2.3951,-2.3954,-2.392,-2.3935,-2.3901,-2.3912,-2.3894,-2.3949,-2.393,-2.3952,-2.3947,-2.3997,-2.3994,-2.4164,-2.4184,-2.4015,-2.4017,-2.4018,0,-2.4022,-2.405,-2.4027,-2.4036,-2.403,-2.4046,-2.4051,-2.4009,-2.4017,-2.4008,-2.4031,-2.4042,-2.4048,-2.4076,-2.4052,-2.4061,-2.4043,-2.4102,-2.4044,-2.4056,-2.4045,-2.4045,-2.4048,-2.4114,-2.4116,-2.4118,-2.4119,0,-2.4164,-2.4146,-2.4155,-2.416,-2.4168,-2.4169,-2.4167,-2.4178,-2.4133,-2.4144,-2.4159,-2.4164,-2.4175,-2.4188,-2.419,-2.4181,-2.4144,-2.4137,-2.4149,-2.4163,-2.4175,-2.4171,-2.3986,-2.4134,-2.4133,-2.4131,-2.4131,-2.413,-2.4273,-2.4295,-2.4283,-2.4295,-2.4289,-2.4288,-2.4307,-2.4287,-2.4298,-2.4304,-2.4278,-2.4299,-2.4289,-2.4289,-2.4284,-2.43,-2.4274,-2.4291,-2.4295,-2.43,-2.4309,-2.4171,-2.43,-2.43,-2.43,-2.4299,-2.4299,0,-2.4413,-2.4402,-2.4414,-2.4412,-2.4422,-2.4385,-2.438,-2.4392,-2.4411,-2.4404,-2.4412,-2.443,-2.4441,-2.4419,-2.4427,-2.4444,-2.4427,-2.4448,-2.4447,-2.4446,-2.4332,-2.4321,-2.4462,-2.4462,-2.4462,-2.4462,-2.4462,-2.4462,-2.4488,-2.4524,-2.4505,-2.4539,-2.4527,-2.4547,-2.4548,-2.4548,-2.4542,-2.4564,-2.4574,-2.4558,-2.4546,-2.4553,-2.4562,-2.4555,-2.4561,-2.4589,-2.4576,-2.447,-2.4454,-2.4439,-2.4429,-2.459,-2.459,-2.4689,-2.469,-2.4691]},{"header":{"parameterUnit":"m.s-1","parameterCategory":1,"la1":30.2991,"la2":30.254,"lo1":-89.0895,"lo2":-89.0444,"dy":0.0017,"dx":0.0017,"nx":28,"ny":28,"refTime":"2024-08-10T21:00:00:Z","depth":0,"parameterNumber":3,"parameterNumberName":"V-component_of_WINDS"},"data":[0,0,0,0,0,0,0,0,0,0,0,0,0,0,0,0,0,0,0,0,0,0,0,0,0,0,0,0,0,0,0,0,0,0,0,0,0,0,0,0,0,0,0,0,0,0,0,0,0,0,0,0,0,0,0,0,0,0,-1.708,-1.708,0,-1.7077,-1.7077,-1.7077,-1.7049,-1.7048,-1.7047,-1.7047,-1.7044,-1.7045,-1.7045,0,0,0,0,0,0,0,0,0,0,0,0,0,-1.7061,-1.7062,-1.708,-1.708,-1.708,-1.7077,-1.7077,-1.7077,-1.7049,-1.7048,-1.7047,-1.7046,-1.7044,-1.7044,-1.7045,0,0,0,0,0,0,0,0,0,0,0,0,0,-1.7065,-1.7062,-1.708,-1.7065,-1.7064,-1.7077,-1.7077,-1.7077,-1.7049,-1.7048,-1.7047,-1.7046,-1.7044,-1.7044,-1.7045,-1.7072,0,0,-1.7048,-1.7048,0,0,0,0,0,0,0,0,-1.7065,-1.7066,-1.7068,-1.7066,-1.7065,-1.7062,-1.7069,-1.7075,-1.7049,-1.7055,-1.7047,-1.7045,-1.7051,-1.7051,-1.7053,-1.7072,-1.7072,-1.7048,-1.7049,-1.7049,-1.7049,0,0,0,0,0,0,0,-1.7065,-1.7066,-1.7079,-1.7068,-1.7066,-1.7059,-1.7058,-1.707,-1.7059,-1.7054,-1.7052,-1.7052,-1.705,-1.7052,-1.7053,-1.7072,-1.7048,-1.7049,-1.7049,-1.705,-1.7112,-1.7113,0,0,0,0,0,0,-1.7066,-1.7066,-1.7079,-1.7079,-1.7062,-1.706,-1.706,-1.7064,-1.7059,-1.7057,-1.7053,-1.7051,-1.7051,-1.7052,-1.7052,-1.7083,-1.7049,-1.705,-1.705,-1.7111,-1.7112,-1.7114,0,0,0,0,0,0,-1.7066,-1.7068,-1.7079,-1.7072,-1.7072,-1.7062,-1.7067,-1.7065,-1.7067,-1.7058,-1.7056,-1.7057,-1.705,-1.7051,-1.7067,-1.7083,-1.705,-1.7051,-1.711,-1.7111,-1.7113,-1.7145,0,0,0,0,0,0,-1.7066,-1.7068,-1.7078,-1.7072,-1.7073,-1.7094,-1.7068,-1.7065,-1.7068,-1.7065,-1.7061,-1.7059,-1.7049,-1.7066,-1.7068,-1.7083,-1.7052,-1.7108,-1.711,-1.7112,-1.7143,-1.7148,-1.7152,0,0,0,0,0,-1.7065,-1.7087,-1.7079,-1.708,-1.7085,-1.7095,-1.7095,-1.7083,-1.707,-1.708,-1.7074,-1.706,-1.7081,-1.7068,-1.707,-1.7086,-1.7107,-1.711,-1.7112,-1.7141,-1.7147,-1.7152,0,0,0,0,0,0,-1.7096,-1.7086,-1.7076,-1.7098,-1.7097,-1.709,-1.7102,-1.709,-1.7094,-1.7091,-1.7076,-1.7076,-1.7094,-1.7091,-1.7077,-1.7111,-1.7091,-1.7094,-1.7112,-1.7118,-1.7123,-1.7123,-1.7052,0,0,0,0,0,-1.7105,-1.7113,-1.7105,-1.7124,-1.7124,-1.7113,-1.7117,-1.7108,-1.7107,-1.7107,-1.7102,-1.7102,-1.7108,-1.7113,-1.7118,-1.7142,-1.7141,-1.7154,-1.7159,-1.7162,-1.7165,-1.7178,-1.7183,-1.7122,-1.7122,-1.7122,0,0,-1.7124,-1.712,-1.7126,-1.713,-1.7129,-1.7138,-1.7114,-1.7124,-1.7131,-1.7108,-1.7123,-1.712,-1.7119,-1.7138,-1.7147,-1.7137,-1.7182,-1.7166,-1.7169,-1.717,-1.7181,-1.7187,-1.7192,-1.7124,-1.7123,-1.7123,0,0,-1.7163,-1.7161,-1.7177,-1.7176,-1.7174,-1.7167,-1.717,-1.7165,-1.7162,-1.7176,-1.716,-1.7167,-1.7179,-1.7178,-1.718,-1.7219,-1.7206,-1.7221,-1.7246,-1.7258,-1.7263,-1.7267,-1.7281,-1.7286,-1.7224,-1.7224,-1.7224,0,-1.7187,-1.72,-1.7187,-1.7198,-1.7201,-1.718,-1.7196,-1.7196,-1.7196,-1.7198,-1.7186,-1.72,-1.7198,-1.7218,-1.7227,-1.7229,-1.7233,-1.7222,-1.7263,-1.7267,-1.7271,-1.7284,-1.7289,-1.7226,-1.7225,-1.7225,-1.7225,0,-1.723,-1.7239,-1.7252,-1.7253,-1.7256,-1.727,-1.7258,-1.7264,-1.7254,-1.7248,-1.7263,-1.7259,-1.7263,-1.7267,-1.7258,-1.7285,-1.7279,-1.7266,-1.7246,-1.7279,-1.7291,-1.7296,-1.7228,-1.7228,-1.7227,-1.7227,0,0,-1.729,-1.7282,-1.7287,-1.7286,-1.7283,-1.7289,-1.7302,-1.7306,-1.7311,-1.7312,-1.7322,-1.7332,-1.7319,-1.7321,-1.7311,-1.7322,-1.7353,-1.7307,-1.7307,-1.7316,-1.7383,-1.7394,-1.74,-1.7344,-1.7345,-1.7346,-1.7383,0,-1.7328,-1.7349,-1.7337,-1.736,-1.7368,-1.7349,-1.736,-1.7358,-1.7353,-1.7359,-1.7353,-1.736,-1.7343,-1.7344,-1.7353,-1.7347,-1.7366,-1.7344,-1.7354,-1.7354,-1.7355,-1.7406,-1.7417,-1.7453,-1.7388,-1.7389,-1.7389,0,-1.7376,-1.7378,-1.7402,-1.7396,-1.7399,-1.7409,-1.7411,-1.7418,-1.7416,-1.7411,-1.7413,-1.74,-1.7412,-1.7392,-1.7408,-1.7394,-1.7397,-1.7394,-1.7395,-1.7396,-1.7374,-1.7408,-1.7464,-1.7469,-1.7396,-1.7396,-1.7395,0,-1.7417,-1.7426,-1.7441,-1.7441,-1.7435,-1.7443,-1.744,-1.7437,-1.744,-1.7442,-1.7444,-1.7448,-1.745,-1.7453,-1.7442,-1.7428,-1.746,-1.7439,-1.7457,-1.7457,-1.7465,-1.7464,-1.7522,-1.7466,-1.7466,-1.7466,-1.7466,0,-1.7461,-1.7476,-1.7459,-1.7469,-1.7486,-1.7471,-1.7488,-1.7483,-1.7481,-1.7489,-1.7472,-1.7481,-1.7465,-1.7472,-1.7463,-1.7478,-1.7479,-1.7476,-1.7474,-1.7478,-1.7478,-1.748,-1.7477,-1.7467,-1.7467,-1.7467,-1.7467,0,-1.751,-1.7499,-1.7515,-1.7507,-1.7506,-1.7518,-1.7512,-1.752,-1.7513,-1.7524,-1.7525,-1.7515,-1.7521,-1.751,-1.7516,-1.751,-1.7531,-1.7525,-1.7532,-1.753,-1.7548,-1.7547,-1.7609,-1.7617,-1.7556,-1.7557,-1.7557,0,-1.7539,-1.7551,-1.7544,-1.7548,-1.7547,-1.7554,-1.7557,-1.7542,-1.7546,-1.7545,-1.7553,-1.7559,-1.7562,-1.7574,-1.7567,-1.7571,-1.7565,-1.7587,-1.7566,-1.757,-1.7566,-1.7565,-1.7566,-1.7591,-1.7592,-1.7592,-1.7593,0,-1.7592,-1.7586,-1.7591,-1.7594,-1.7597,-1.7599,-1.7599,-1.7604,-1.7589,-1.7594,-1.76,-1.7603,-1.7609,-1.7615,-1.7617,-1.7615,-1.7602,-1.7599,-1.7604,-1.7608,-1.7612,-1.761,-1.7544,-1.7598,-1.7598,-1.7597,-1.7597,-1.7597,-1.7632,-1.7641,-1.7638,-1.7644,-1.7642,-1.7643,-1.765,-1.7644,-1.7649,-1.7652,-1.7644,-1.7653,-1.765,-1.7652,-1.7651,-1.7658,-1.7648,-1.7654,-1.7656,-1.7658,-1.7661,-1.7611,-1.7658,-1.7658,-1.7658,-1.7657,-1.7657,0,-1.7685,-1.7681,-1.7686,-1.7687,-1.7692,-1.7678,-1.7678,-1.7683,-1.769,-1.7689,-1.7693,-1.77,-1.7706,-1.7698,-1.7702,-1.7709,-1.7703,-1.7711,-1.771,-1.771,-1.7669,-1.7665,-1.7715,-1.7715,-1.7715,-1.7715,-1.7715,-1.7715,-1.7712,-1.7727,-1.772,-1.7734,-1.773,-1.7738,-1.7739,-1.774,-1.7739,-1.7748,-1.7752,-1.7747,-1.7743,-1.7747,-1.7751,-1.7749,-1.7751,-1.7761,-1.7757,-1.7719,-1.7713,-1.7707,-1.7704,-1.7761,-1.7762,-1.7797,-1.7797,-1.7798]}]]